Location: Belfast
(54.5830°N, 5.9330°W)
Time: 14:53:26
(UTC+01:00)

ISS - Pass Details

Date: 15 September 2018
Orbit: 402 x 408 km, 51.6° (Epoch: 18 September)

Event Time Altitude Azimuth Distance (km) Brightness Sun altitude
Exits shadow 04:00:46 12° 117° (ESE) 1,357 -1.0 -23.4°
Drops below altitude 10° 04:01:00 10° 116° (ESE) 1,451 -0.8 -23.4°
Sets 04:03:08 0° 110° (ESE) 2,318 0.3 -23.1°
